Flag for Germany Weather past 2 weeks in Seelze, Lower Saxony, Germany

Now
61 °F

Scattered clouds.


Feels Like: 61 °F
Forecast: 51 / 62 °F
Wind: 2 mph from North

Location: Hannover

Current Time: Sep 3, 2015 at 3:44:55 PM

Latest Report: Sep 3, 2015 at 3:20 PM


Visibility: N/A

Pressure: 29.92 "Hg

Humidity: 72%

Dew point: 52 °F

Location of SeelzeLocation

Historic Weather in Seelze — Graph

°F

Seelze temperature yesterday

Maximum temperature yesterday: 66 °F (at 2:50 PM)
Minimum temperature yesterday: 52 °F (at 3:50 AM)
Average temperature yesterday: 58 °F

Past Weeks' High & Low Weather Summary

 TemperatureHumidityPressure
High90 °F (Aug 31, 4:20 PM)100% (Aug 19, 10:20 PM)30.30 "Hg (Aug 19, 10:20 PM)
Low48 °F (Aug 29, 6:50 AM)30% (Aug 22, 1:20 PM)29.59 "Hg (Aug 24, 6:20 PM)
Average65 °F76%29.98 "Hg
* Reported Aug 19 2:20 PM — Sep 3 2:20 PM, Seelze, Weather by CustomWeather, © 2015

Note: Actual official high and low records may vary slightly from our data, if they occured in-between our weather recording intervals... More about our weather records

Advertising

Seelze weather history for previous 24 hours

 ConditionsComfort  
Time TempWeatherWind HumidityBarometerVisibility
2:20 PM
Thu, Sep 3
61 °FSprinkles. Scattered clouds.6 mph72%29.92 "HgN/A
1:50 PM61 °FScattered clouds.5 mph72%29.92 "HgN/A
1:20 PM61 °FScattered clouds.6 mph72%29.92 "HgN/A
12:50 PM61 °FScattered clouds.5 mph77%29.95 "HgN/A
12:20 PM61 °FScattered clouds.5 mph77%29.95 "HgN/A
11:50 AM59 °FScattered clouds.3 mph82%29.95 "HgN/A
11:20 AM57 °FScattered clouds.5 mph88%29.95 "HgN/A
10:50 AM57 °FScattered clouds.3 mph88%29.95 "HgN/A
10:20 AM54 °FSprinkles. Partly sunny.2 mph100%29.95 "Hg4 mi
9:50 AM54 °FSprinkles. Fog.3 mph100%29.95 "Hg2 mi
9:20 AM54 °FSprinkles. Fog.6 mph100%29.95 "Hg2 mi
8:50 AM54 °FPartly sunny.2 mph94%29.95 "Hg4 mi
8:20 AM54 °FFog.1 mph100%29.95 "Hg4 mi
7:50 AM54 °FFog.3 mph94%29.95 "Hg4 mi
7:20 AM54 °FFog.3 mph100%29.95 "Hg4 mi
6:50 AM52 °FPassing clouds.1 mph100%29.95 "Hg4 mi
6:20 AM52 °FClear.3 mph100%29.95 "Hg4 mi
5:20 AM48 °FFog.1 mph100%29.95 "Hg4 mi
4:50 AM50 °FFog.1 mph100%29.95 "Hg4 mi
4:20 AM48 °FCool.1 mph100%29.95 "Hg2 mi
3:50 AM50 °FCool.1 mph100%29.95 "Hg3 mi
3:20 AM50 °FFog.3 mph100%29.95 "Hg4 mi
2:50 AM50 °FClear.3 mph100%29.95 "Hg6 mi
2:20 AM50 °FClear.3 mph94%29.98 "Hg10 mi
1:50 AM50 °FClear.2 mph100%29.98 "Hg10 mi
1:20 AM52 °FPassing clouds.3 mph94%29.98 "HgN/A
12:50 AM52 °FPassing clouds.3 mph94%29.98 "HgN/A
11:20 PM
Wed, Sep 2
54 °FClear.6 mph88%29.98 "Hg10 mi
10:50 PM55 °FPassing clouds.3 mph82%29.98 "HgN/A
10:20 PM57 °FPassing clouds.5 mph77%29.98 "HgN/A
9:50 PM57 °FClear.6 mph77%29.98 "Hg10 mi
9:20 PM57 °FClear.5 mph77%29.98 "Hg10 mi
8:50 PM59 °FSunny.6 mph72%29.98 "Hg10 mi
8:20 PM61 °FPartly sunny.6 mph68%29.98 "HgN/A
7:50 PM63 °FPartly sunny.7 mph64%29.98 "HgN/A
7:20 PM63 °FPartly sunny.5 mph68%29.98 "HgN/A
6:50 PM63 °FPartly sunny.8 mph64%29.95 "HgN/A
6:20 PM64 °FPartly sunny.7 mph60%29.95 "HgN/A
5:20 PM66 °FPassing clouds.8 mph60%29.95 "HgN/A
4:50 PM64 °FScattered clouds.7 mph60%29.98 "HgN/A
4:20 PM66 °FPassing clouds.8 mph56%29.98 "HgN/A
3:50 PM64 °FPassing clouds.6 mph64%29.98 "HgN/A
3:20 PM64 °FPassing clouds.10 mph56%29.98 "HgN/A
Weather by CustomWeather, © 2015

See weather overviewHow to use our weather pages